レモン彗星

C/2023 H5 ( Lemmon )

English version
Home page
Updated on April 11, 2024

---------------------------------------------------------------------

・ プロフィール

発見日 2023年4月19日
発見光度 20.2等
発見者 Mt. Lemmon Survey

・ 写真集

・ 軌道要素

Epoch 2024 Mar. 31.0 TT = JDT 2460400.5
T 2025 June 30.15754 TT                                 Rudenko
q   4.3130284            (2000.0)            P               Q
z  -0.0000866      Peri.   60.07836     -0.42559139     +0.83566309
 +/-0.0000012      Node   159.48290     -0.07916206     -0.41657911
e   1.0003734      Incl.   97.86785     +0.90144625     +0.35795119
>From 379 observations 2022 Dec. 1-2024 Mar. 18, mean residual 0".4.

・ 星図

・ 光度変化

        m1 = 2.5 + 5 logΔ + 15.0 log r

---------------------------------------------------------------------

軌道要素はM.P.E.C. 2024-F34に掲載されたものです。
星図はステラナビゲータ Ver.11 (アストロアーツ) で作成したものです。
光度グラフはComet for Windowsで作成したものです。

---------------------------------------------------------------------

Copyright(C) Seiichi Yoshida (comet@aerith.net). All rights reserved.